Regional Weather Roundup
Issued by NWS

Home | Current Version | Previous Version | Text Only | Print | Product List | Glossary Off
Versions: 1 2 3 4 5 6 7 8 9 10 11 12 13 14 15 16 17 18 19 20 21 22 23 24 25 26 27 28 29 30 31 32 33 34 35 36 37 38 39 40 41 42 43 44 45 46 47 48 49 50

000
ASUS45 KBOI 300010
RWRID

IDAHO REGIONAL WEATHER ROUNDUP
NATIONAL WEATHER SERVICE BOISE ID
600 PM MDT WED JUL 29 2015

NOTE: "FAIR" INDICATES FEW OR NO CLOUDS BELOW 12000 FEET
WITH NO SIGNIFICANT WEATHER AND/OR OBSTRUCTIONS TO VISIBILITY

IDZ012-014-300100-
SOUTHWEST IDAHO


CITY           SKY/WX    TMP DP  RH WIND       PRES   REMARKS
BOISE          SUNNY     89  30  12 N6        30.14F
CALDWELL       SUNNY     88  34  14 N5        30.15F
$$

IDZ016-017-300100-
SOUTHCENTRAL IDAHO


CITY           SKY/WX    TMP DP  RH WIND       PRES   REMARKS
BURLEY         SUNNY     83  34  17 VRB3      30.21F
JEROME         SUNNY     82  25  12 W5        30.21F
TWIN FALLS     SUNNY     86  30  13 NW9       30.19F
$$

IDZ019>023-300100-
SOUTHEAST IDAHO


CITY           SKY/WX    TMP DP  RH WIND       PRES   REMARKS
IDAHO FALLS    SUNNY     80  33  18 NW5       30.28F
POCATELLO      SUNNY     81  35  19 NW9       30.26F
REXBURG        SUNNY     77  31  18 VRB6      30.29F
$$

IDZ006-010-011-018-031-032-300100-
CENTRAL IDAHO MOUNTAINS


CITY           SKY/WX    TMP DP  RH WIND       PRES   REMARKS
MCCALL         SUNNY     78  33  19 S7        30.27S
HAILEY         MOSUNNY   75  39  27 SE12      30.29F
STANLEY          N/A     77  30  17 NW7G18    30.35S
SALMON         SUNNY     81  43  26 NW7       30.18F
CHALLIS        SUNNY     82  34  17 N5        30.24F
$$

IDZ002-004-006-007-026-300100-
NORTHERN IDAHO


CITY           SKY/WX    TMP DP  RH WIND       PRES   REMARKS
LEWISTON       SUNNY     93  32  11 CALM      30.08F
LOWELL           N/A     89  45  21 CALM      30.08F
COEUR D`ALENE  SUNNY     88  36  15 W7        30.12F
MULLAN PASS    SUNNY     70  36  28 N5        30.35S
$$



USA.gov is the U.S. government's official web portal to all federal, state and local government web resources and services.